KINEIS-4A

Last updated on Wed Oct 22 2025 00:02:42 GMT+0000 (Coordinated Universal Time)

1 63303U 25056D 25294.62066440 .00004051 00000+0 64841-3 0 9998 2 63303 97.9976 58.1993 0002134 4.5667 355.5560 14.72304878 32027
UTC large
Height (km)
Speed (km/s)
/
Latitude / Longitude
Inclination (degrees)
Orbital Period (minutes)
Azimuth
Elevation
Range (km)
Doppler Factor

Next 0 passes for location: London (51.5072 / 0.1276)

Sorry there are no passes over London.